Find Starlink 31053

NORAD ID: 58549 Int'l Des: 2023-192 Owner: SPXS Country: US Constellation: starlink operational
LEOCIRCULAR

現在のビュー

3D地球を読み込み中...

About Starlink 31053

Starlink 31053 (NORAD 58549) is a starlink constellation satellite (v2 mini) launched Dec 8, 2023 by SPXS of US. It operates in LEO, CIRCULAR orbit with a mass of 730.00 kg.

Starlink 31053について

説明を読み込み中...

次回通過

Passes for default location (London). Set your location on the main map for personalized predictions.

高度履歴

Loading altitude history...

軌道要素

1 58549U 23192U 26171.35666394 .00006563 00000-0 20516-3 0 9994
2 58549 53.1588 304.4829 0000799 76.7588 283.3503 15.34404942141724
Epoch: Jun 20, 2026 • Age: 21 hours

現在のステータス

高度 468.1 km
速度 7.64 km/s
衛星直下点 50.83°N, 19.06°E
打ち上げ日 Dec 8, 2023
運用期間 2.5 years
タイプ internet

技術仕様

分類 Payload
質量 730.00 kg
乾燥質量 700.00 kg
総質量 730.00 kg
長さ 0.30 m
直径 4.10 m
スパン 29.00 m
形状 Box + pan
製造者 SPXS
バスタイプ Starlink V2M
フェーズステータス In Orbit
所有者/国 SPXS/US

Most Searched